Laman API Video Percuma Terbaik

AVDBAPI.COM

Cari katalog, semak rekod, dan salin URL API bersih daripada papan pemuka pantas.

Telegram Join Our Telegram Community for Updates!
Today
83
Kemaskini Hari Ini
Censored
314141
Censored Videos
Total
474352
Total Videos

Senarai Video

Rekod terkini disusun mengikut masa kemas kini.

ID Nama CODE Kategori Dikemaskini API
264915 101320-370 Kisah Pakopako dengan wanita bersuami yang memang suka kena kongkek 101320-370 Tanpa sensor 2025-08-29 03:50:50 API
264914 NKD-028-B Malaikat Telanjang Nami 4 NKD-028-B Tanpa sensor 2025-08-29 03:50:40 API
264913 042816-550 Babak Terbaik Ai Uehara - Bahagian 2 042816-550 Tanpa sensor 2025-08-29 03:50:30 API
264912 031321-01 Jururawat Amatir Yang Ingin Tahu 031321-01 Tanpa sensor 2025-08-29 03:50:20 API
264911 HEYZO-2622 Shiori Yamagishi [Shiori Yamagishi] Bawa teman lelaki aku tidur sekali! -Permintaan NTR daripada kawan rapat- HEYZO-2622 Tanpa sensor 2025-08-29 03:50:10 API
264910 100521-001 Fail Hawa Panas Wanita.084 Kurumi Koi Dalam Fasa Berahi 100521-001 Tanpa sensor 2025-08-29 03:50:00 API
264909 FC2-PPV-4494567 Kemunculan! Terhad 3 hari sahaja! Gadis komite kelas yang sangat comel di sekolah FC2-PPV-4494567 Tanpa sensor 2025-08-29 03:49:50 API
264908 042920_001 Edisi Khas: Wanita Menggoda Beraroma Era Showa 042920_001 Tanpa sensor 2025-08-29 03:49:40 API
264907 C0930-KI210605 Wanita Matang 40 Tahun Yuko Kamei C0930-KI210605 Tanpa sensor 2025-08-29 03:49:30 API
264906 H0930-KI211128 Wanita Cantik Berusia 40 Tahun Chisato Miura H0930-KI211128 Tanpa sensor 2025-08-29 03:49:20 API
264905 H4610-KI220419 Yua Hirasawa Berusia 25 Tahun H4610-KI220419 Tanpa sensor 2025-08-29 03:49:10 API
264904 101520-371 Guru Bahasa Inggeris yang baru pulang dari luar negara dimanjakan sampai ketagihan! 101520-371 Tanpa sensor 2025-08-29 03:49:00 API
264903 HEYZO-2631 Rie Oshima [Rie Oshima] Puas2 HEYZO-2631 Tanpa sensor 2025-08-29 03:48:50 API
264902 100621-001 Tidak Diterbitkan ~ Koleksi perempuan peminat tegar Deep Throat! ~ Chisato Takayama, Yui Kawagoe, Rena, Mika, Maki Koizumi 100621-001 Tanpa sensor 2025-08-29 03:48:40 API
264901 031421-01 Koleksi Puki Pilihan Terbaik - Sila Lihat Puki Yuko - 031421-01 Tanpa sensor 2025-08-29 03:48:30 API
264900 FC2-PPV-4495983 Paizuri Susu Melimpah. Muka Comel dengan Payudara Besar Semulajadi. Sekali tengok terus stim, badan seksi yang menggoda! Mak yang paling mantap! FC2-PPV-4495983 Tanpa sensor 2025-08-29 03:48:20 API
264899 043020_001 Terus hisap puting sebab ketagih batang 043020_001 Tanpa sensor 2025-08-29 03:48:10 API
264898 H0930-KI211130 Wanita Matang 51 Tahun Mariko Sumita H0930-KI211130 Tanpa sensor 2025-08-29 03:48:00 API
264896 C0930-KI210608 Wanita Cantik Berusia 35 Tahun Mai Kawasato C0930-KI210608 Tanpa sensor 2025-08-29 03:47:40 API
264895 HEZ-464 Saya Menggoda Makcik Biasa Yang Dilihat Di Jalan Dan Menyetubuhnya Hingga Pancut Dalam Vagina! 20 Orang 5 Jam HEZ-464 Mosaik 2025-08-29 03:47:30 API
264894 NKD-029-B NakedAngel Linker NKD-029-B Tanpa sensor 2025-08-29 03:47:20 API
264893 HEYZO-2623 Jessica Takizawa French Kiss Basah, Seks Ketat yang Nakal! HEYZO-2623 Tanpa sensor 2025-08-29 03:47:10 API
264892 050316-554 Model Gravure Berdada Besar Ditipu ~ Tubuh Menggiurkan ~ 050316-554 Tanpa sensor 2025-08-29 03:47:00 API
264890 FC2-PPV-4497790 Gadis Nude Cowgirl Hilang dan Kena Creampied 2 Kali / Mandi Erotik / Basuh Badan / Selfie Masturbasi! Debut Mummy W *Close up gila! Tempat terbaik untuk tonton dan komen FC2-PPV-4497790 Tanpa sensor 2025-08-29 03:46:40 API
264888 101720-372 Kali pertama cukur bulu kemaluan! Kelamin licin yang jadi super sensitif 101720-372 Tanpa sensor 2025-08-29 03:46:20 API
264887 H0930-KI211202 Wanita Seksi 33 Tahun Yumiko Takeshita H0930-KI211202 Tanpa sensor 2025-08-29 03:46:10 API
264886 100721-001 Buku Gambar Puki Nao Fujishima 100721-001 Tanpa sensor 2025-08-29 03:46:00 API
264885 HEYZO-2624 Hasegawa Bogel [Hasegawa Mira] Nikmat dengan urutan erotik! ~ Kecantikan bogel Hasegawa ~ HEYZO-2624 Tanpa sensor 2025-08-29 03:45:50 API
264883 050120_001 Tokimeki ~ Lelaki kacak dengan tubuh seksi dan sensasi licin yang sangat nikmat untuk dipeluk ~ 050120_001 Tanpa sensor 2025-08-29 03:45:30 API
264882 C0930-KI210610 Wanita Matang 47 Tahun Atsuko Kiyono C0930-KI210610 Tanpa sensor 2025-08-29 03:45:20 API
264881 050316-556 Pelacur Cantik - Nampak sopan pada pandangan pertama, tapi sebenarnya perempuan jalang 050316-556 Tanpa sensor 2025-08-29 03:45:10 API
264880 FC2-PPV-4494759 [Edisi Terhad 2980¥/1980¥] FC2-PPV-4494759 Tanpa sensor 2025-08-29 03:45:00 API
264879 100821-001 BOGA x BOGA ~ Yui Kisaragi memuji cara aku main di ranjang ~ Yui Kisaragi 100821-001 Tanpa sensor 2025-08-29 03:44:50 API
264878 H0930-KI211205 Gadis Cantik 23 Tahun Asumi Shimazaki H0930-KI211205 Tanpa sensor 2025-08-29 03:44:40 API
264877 031921-01 Koleksi Puki Berharga - Sila Lihat Puki Kazumi - 031921-01 Tanpa sensor 2025-08-29 03:44:30 API
264876 HEYZO-2640 Rika [Rika] Karya terbaru: Gadis tercantik Rika (20) Pancutan sperma terus ke dalam faraj tanpa kondom oleh orang kaya HEYZO-2640 Tanpa sensor 2025-08-29 03:44:20 API
264875 SDJS-158 Rin Miyazaki terima pesanan perniagaan di sex shop yang hampir muflis! Kelab masturbasi, salun kecantikan lelaki, kesihatan! SDJS-158 Mosaik 2025-08-29 03:44:10 API
264874 C0930-KI210613 Wanita Cantik 30 Tahun Makiko Oikawa C0930-KI210613 Tanpa sensor 2025-08-29 03:44:00 API
264873 SE223 Karya Pertama Amane: Saya terpukau dengan permainan kawan lama saya SE223 Tanpa sensor 2025-08-29 03:43:50 API
264871 050220_001 Tubuh Eksotik Yang Menggiurkan Bak Bom 050220_001 Tanpa sensor 2025-08-29 03:43:30 API
264870 102020-373 Tolong urut saya dalam baju cheongsam ini! 102020-373 Tanpa sensor 2025-08-29 03:43:20 API
264869 032021-01 Gadis Amatir Ketagih Seks Kinky Dengan Pakcik 032021-01 Tanpa sensor 2025-08-29 03:43:10 API
264868 H4610-ORI1779 Gadis Cantik Berusia 20 Tahun Kinose Sayami H4610-ORI1779 Tanpa sensor 2025-08-29 03:43:00 API
264867 CARIBBEANCOMPR-052016_569 Model S Tinggi 156 Pendedahan Luar Rumah Dan Seks Berterusan Creampie CARIBBEANCOMPR-052016_569 Tanpa sensor 2025-08-29 03:42:50 API
264866 100921-001 Dua anak perempuan hantu orgy dan syurga 4P bersama Shino Aoi & Aya Eikura 100921-001 Tanpa sensor 2025-08-29 03:42:40 API
264865 HEYZO-2625 Remi Fuyutsuki [Remi Fuyutsuki] Rundingan seks dengan wanita seksi menggunakan sabun mewah HEYZO-2625 Tanpa sensor 2025-08-29 03:42:30 API
264864 050320_001 Godaan Manchira 050320_001 Tanpa sensor 2025-08-29 03:42:20 API
264863 102220-374 Kamu Masih Muda Dulu ~ Cosplay Seragam Pelaut ~ 102220-374 Tanpa sensor 2025-08-29 03:42:10 API
264861 C0930-KI210612 Wanita Matang 48 Tahun Aiko Hashimoto C0930-KI210612 Tanpa sensor 2025-08-29 03:41:50 API
264860 FC2-PPV-4497503 Campuran berbahaya antara "Loli" dan "Madam"! Puan Shino yang dibenci dan Yumi-chan si miskin yang hampir mati kena 4P! Bab 2 & Yumi-chan Bab 3 [Versi Luar Negara] FC2-PPV-4497503 Tanpa sensor 2025-08-29 03:41:40 API